Time,TemperatureF,DewpointF,PressureIn,WindDirection,WindDirectionDegrees,WindSpeedMPH,WindSpeedGustMPH,Humidity,HourlyPrecipIn,Conditions,Clouds,dailyrainin,SoftwareType,DateUTC
2013-06-18 00:02:00,48.6,43.6,29.38,WNW,292,0.0,0.0,83,0.00,CLR,OVC,0.00,WeatherDisplay:10.37,2013-06-17 14:02:00,
2013-06-18 00:07:00,48.6,43.6,29.38,West,270,0.0,0.0,83,0.00,CLR,OVC,0.00,WeatherDisplay:10.37,2013-06-17 14:07:00,
2013-06-18 00:12:00,48.4,43.5,29.38,West,270,0.0,0.0,83,0.00,CLR,OVC,0.00,WeatherDisplay:10.37,2013-06-17 14:12:00,
2013-06-18 00:17:00,48.2,43.0,29.38,West,270,0.0,0.0,82,0.00,CLR,OVC,0.00,WeatherDisplay:10.37,2013-06-17 14:17:00,
2013-06-18 00:22:00,48.2,43.3,29.38,West,270,0.0,0.0,83,0.00,CLR,OVC,0.00,WeatherDisplay:10.37,2013-06-17 14:22:00,
2013-06-18 00:27:00,48.2,43.3,29.38,West,270,0.0,0.0,83,0.00,CLR,OVC,0.00,WeatherDisplay:10.37,2013-06-17 14:27:00,
2013-06-18 00:32:00,48.0,43.1,29.38,SE,135,0.0,0.0,83,0.00,CLR,OVC,0.00,WeatherDisplay:10.37,2013-06-17 14:32:00,
2013-06-18 00:37:00,47.8,42.9,29.38,ESE,112,0.0,0.0,83,0.00,CLR,OVC,0.00,WeatherDisplay:10.37,2013-06-17 14:37:00,
2013-06-18 00:42:00,47.8,43.2,29.38,ENE,68,0.0,0.0,84,0.00,CLR,OVC,0.00,WeatherDisplay:10.37,2013-06-17 14:42:00,
2013-06-18 00:47:00,47.8,43.2,29.38,WNW,292,0.0,0.0,84,0.00,CLR,OVC,0.00,WeatherDisplay:10.37,2013-06-17 14:47:00,
2013-06-18 00:52:00,47.7,43.1,29.38,WNW,292,0.0,0.0,84,0.00,CLR,OVC,0.00,WeatherDisplay:10.37,2013-06-17 14:52:00,
2013-06-18 00:57:00,47.5,42.9,29.38,ESE,112,0.0,0.0,84,0.00,CLR,OVC,0.00,WeatherDisplay:10.37,2013-06-17 14:57:00,
2013-06-18 01:02:00,47.3,42.4,29.38,ESE,112,0.0,0.0,83,0.00,CLR,OVC,0.00,WeatherDisplay:10.37,2013-06-17 15:02:00,
2013-06-18 01:07:00,47.3,42.4,29.38,SW,225,0.0,0.0,83,0.00,CLR,OVC,0.00,WeatherDisplay:10.37,2013-06-17 15:07:00,
2013-06-18 01:12:00,47.1,42.2,29.38,SSW,202,0.0,0.0,83,0.00,CLR,OVC,0.00,WeatherDisplay:10.37,2013-06-17 15:12:00,
2013-06-18 01:17:00,46.9,42.0,29.38,WSW,248,0.0,0.0,83,0.00,CLR,OVC,0.00,WeatherDisplay:10.37,2013-06-17 15:17:00,
2013-06-18 01:22:00,46.9,42.0,29.38,West,270,0.0,0.0,83,0.00,CLR,OVC,0.00,WeatherDisplay:10.37,2013-06-17 15:22:00,
2013-06-18 01:27:00,46.8,41.9,29.38,SW,225,0.0,0.0,83,0.00,CLR,OVC,0.00,WeatherDisplay:10.37,2013-06-17 15:27:00,
2013-06-18 01:32:00,46.6,41.7,29.38,SSE,158,0.0,0.0,83,0.00,CLR,OVC,0.00,WeatherDisplay:10.37,2013-06-17 15:32:00,
2013-06-18 01:37:00,46.6,41.7,29.38,East,90,0.0,0.0,83,0.00,CLR,OVC,0.00,WeatherDisplay:10.37,2013-06-17 15:37:00,
2013-06-18 01:42:00,46.6,41.7,29.38,East,90,0.0,0.0,83,0.00,CLR,OVC,0.00,WeatherDisplay:10.37,2013-06-17 15:42:00,
2013-06-18 01:47:00,46.4,41.5,29.38,East,90,0.0,0.0,83,0.00,CLR,OVC,0.00,WeatherDisplay:10.37,2013-06-17 15:47:00,
2013-06-18 01:52:00,46.2,41.7,29.38,East,90,0.0,0.0,84,0.00,CLR,OVC,0.00,WeatherDisplay:10.37,2013-06-17 15:52:00,
2013-06-18 01:57:00,46.2,41.3,29.38,SE,135,0.0,0.0,83,0.00,CLR,OVC,0.00,WeatherDisplay:10.37,2013-06-17 15:57:00,
2013-06-18 02:02:00,46.0,41.5,29.38,SE,135,0.0,0.0,84,0.00,CLR,OVC,0.00,WeatherDisplay:10.37,2013-06-17 16:02:00,
2013-06-18 02:07:00,46.0,41.5,29.38,SE,135,0.0,0.0,84,0.00,CLR,OVC,0.00,WeatherDisplay:10.37,2013-06-17 16:07:00,
2013-06-18 02:12:00,45.9,41.3,29.38,SE,135,0.0,0.0,84,0.00,CLR,OVC,0.00,WeatherDisplay:10.37,2013-06-17 16:12:00,
2013-06-18 02:17:00,45.9,41.3,29.38,SE,135,0.0,0.0,84,0.00,CLR,OVC,0.00,WeatherDisplay:10.37,2013-06-17 16:17:00,
2013-06-18 02:22:00,45.7,41.1,29.38,SE,135,0.0,0.0,84,0.00,CLR,OVC,0.00,WeatherDisplay:10.37,2013-06-17 16:22:00,
2013-06-18 02:27:00,45.7,41.1,29.38,SE,135,0.0,0.0,84,0.00,CLR,OVC,0.00,WeatherDisplay:10.37,2013-06-17 16:27:00,
2013-06-18 02:32:00,45.5,40.9,29.38,ESE,112,0.0,0.0,84,0.00,CLR,OVC,0.00,WeatherDisplay:10.37,2013-06-17 16:32:00,
2013-06-18 02:37:00,45.3,40.8,29.38,East,90,0.0,0.0,84,0.00,CLR,OVC,0.00,WeatherDisplay:10.37,2013-06-17 16:37:00,
2013-06-18 02:42:00,45.3,40.8,29.38,East,90,0.0,0.0,84,0.00,CLR,OVC,0.00,WeatherDisplay:10.37,2013-06-17 16:42:00,
2013-06-18 02:47:00,45.3,40.8,29.38,East,90,0.0,0.0,84,0.00,CLR,OVC,0.00,WeatherDisplay:10.37,2013-06-17 16:47:00,
2013-06-18 02:52:00,45.1,40.6,29.38,East,90,0.0,0.0,84,0.00,CLR,OVC,0.00,WeatherDisplay:10.37,2013-06-17 16:52:00,
2013-06-18 02:57:00,45.1,40.6,29.38,West,270,0.0,0.0,84,0.00,CLR,OVC,0.00,WeatherDisplay:10.37,2013-06-17 16:57:00,
2013-06-18 03:02:00,45.0,40.4,29.38,WNW,292,0.0,0.0,84,0.00,CLR,OVC,0.00,WeatherDisplay:10.37,2013-06-17 17:02:00,
2013-06-18 03:07:00,44.8,40.2,29.38,West,270,0.0,0.0,84,0.00,CLR,OVC,0.00,WeatherDisplay:10.37,2013-06-17 17:07:00,
2013-06-18 03:12:00,44.8,40.2,29.38,ENE,68,0.0,0.0,84,0.00,CLR,OVC,0.00,WeatherDisplay:10.37,2013-06-17 17:12:00,
2013-06-18 03:17:00,44.6,40.1,29.38,ENE,68,0.0,0.0,84,0.00,CLR,OVC,0.00,WeatherDisplay:10.37,2013-06-17 17:17:00,
2013-06-18 03:22:00,44.6,40.1,29.38,ENE,68,0.0,0.0,84,0.00,CLR,OVC,0.00,WeatherDisplay:10.37,2013-06-17 17:22:00,
2013-06-18 03:27:00,44.4,39.9,29.38,ENE,68,0.0,0.0,84,0.00,CLR,OVC,0.00,WeatherDisplay:10.37,2013-06-17 17:27:00,
2013-06-18 03:32:00,44.4,40.2,29.41,ENE,68,0.0,0.0,85,0.00,CLR,OVC,0.00,WeatherDisplay:10.37,2013-06-17 17:32:00,
2013-06-18 03:37:00,44.2,39.7,29.41,ENE,68,0.0,0.0,84,0.00,CLR,OVC,0.00,WeatherDisplay:10.37,2013-06-17 17:37:00,
2013-06-18 03:42:00,44.2,39.7,29.41,NE,45,0.0,0.0,84,0.00,CLR,OVC,0.00,WeatherDisplay:10.37,2013-06-17 17:42:00,
2013-06-18 03:47:00,44.1,39.5,29.41,NNE,22,0.0,0.0,84,0.00,CLR,OVC,0.00,WeatherDisplay:10.37,2013-06-17 17:47:00,
2013-06-18 03:52:00,44.1,39.5,29.41,West,270,0.0,0.0,84,0.00,CLR,OVC,0.00,WeatherDisplay:10.37,2013-06-17 17:52:00,
2013-06-18 03:57:00,43.9,39.4,29.41,West,270,0.0,0.0,84,0.00,CLR,OVC,0.00,WeatherDisplay:10.37,2013-06-17 17:57:00,
2013-06-18 04:02:00,43.7,39.2,29.41,WNW,292,0.0,0.0,84,0.00,CLR,OVC,0.00,WeatherDisplay:10.37,2013-06-17 18:02:00,
2013-06-18 04:07:00,43.5,38.7,29.41,SSW,202,0.0,0.0,83,0.00,CLR,OVC,0.00,WeatherDisplay:10.37,2013-06-17 18:07:00,
2013-06-18 04:12:00,43.3,38.5,29.41,South,180,0.0,0.0,83,0.00,CLR,OVC,0.00,WeatherDisplay:10.37,2013-06-17 18:12:00,
2013-06-18 04:17:00,43.3,38.2,29.41,South,180,0.0,0.0,82,0.00,CLR,OVC,0.00,WeatherDisplay:10.37,2013-06-17 18:17:00,
2013-06-18 04:22:00,43.2,38.3,29.41,West,270,0.0,0.0,83,0.00,CLR,OVC,0.00,WeatherDisplay:10.37,2013-06-17 18:22:00,
2013-06-18 04:27:00,43.2,38.3,29.41,West,270,0.0,0.0,83,0.00,CLR,OVC,0.00,WeatherDisplay:10.37,2013-06-17 18:27:00,
2013-06-18 04:32:00,43.0,38.2,29.41,SW,225,0.0,0.0,83,0.00,CLR,OVC,0.00,WeatherDisplay:10.37,2013-06-17 18:32:00,
2013-06-18 04:37:00,42.8,38.0,29.41,SW,225,0.0,0.0,83,0.00,CLR,OVC,0.00,WeatherDisplay:10.37,2013-06-17 18:37:00,
2013-06-18 04:42:00,42.8,38.0,29.41,SW,225,0.0,0.0,83,0.00,CLR,OVC,0.00,WeatherDisplay:10.37,2013-06-17 18:42:00,
2013-06-18 04:47:00,42.8,37.7,29.44,SW,225,0.0,0.0,82,0.00,CLR,OVC,0.00,WeatherDisplay:10.37,2013-06-17 18:47:00,
2013-06-18 04:52:00,42.8,38.0,29.44,SW,225,0.0,0.0,83,0.00,CLR,OVC,0.00,WeatherDisplay:10.37,2013-06-17 18:52:00,
2013-06-18 04:57:00,42.6,37.8,29.44,SW,225,0.0,0.0,83,0.00,CLR,OVC,0.00,WeatherDisplay:10.37,2013-06-17 18:57:00,
2013-06-18 05:02:00,42.4,37.6,29.41,South,180,0.0,0.0,83,0.00,CLR,OVC,0.00,WeatherDisplay:10.37,2013-06-17 19:02:00,
2013-06-18 05:07:00,42.4,37.9,29.41,ESE,112,0.0,0.0,84,0.00,CLR,OVC,0.00,WeatherDisplay:10.37,2013-06-17 19:07:00,
2013-06-18 05:12:00,42.4,37.9,29.41,ESE,112,0.0,0.0,84,0.00,CLR,OVC,0.00,WeatherDisplay:10.37,2013-06-17 19:12:00,
2013-06-18 05:17:00,42.3,37.8,29.44,ESE,112,0.0,0.0,84,0.00,CLR,OVC,0.00,WeatherDisplay:10.37,2013-06-17 19:17:00,
2013-06-18 05:22:00,42.3,37.5,29.44,WNW,292,0.0,0.0,83,0.00,CLR,OVC,0.00,WeatherDisplay:10.37,2013-06-17 19:22:00,
2013-06-18 05:27:00,42.1,37.3,29.44,WSW,248,0.0,0.0,83,0.00,CLR,OVC,0.00,WeatherDisplay:10.37,2013-06-17 19:27:00,
2013-06-18 05:32:00,42.1,37.3,29.44,SE,135,0.0,0.0,83,0.00,CLR,OVC,0.00,WeatherDisplay:10.37,2013-06-17 19:32:00,
2013-06-18 05:37:00,41.9,37.4,29.44,ENE,68,0.0,0.0,84,0.00,CLR,OVC,0.00,WeatherDisplay:10.37,2013-06-17 19:37:00,
2013-06-18 05:42:00,41.7,37.2,29.44,ENE,68,0.0,0.0,84,0.00,CLR,OVC,0.00,WeatherDisplay:10.37,2013-06-17 19:42:00,
2013-06-18 05:47:00,41.7,36.9,29.44,ENE,68,0.0,0.0,83,0.00,CLR,OVC,0.00,WeatherDisplay:10.37,2013-06-17 19:47:00,
2013-06-18 05:52:00,41.5,36.8,29.44,ENE,68,0.0,0.0,83,0.00,CLR,OVC,0.00,WeatherDisplay:10.37,2013-06-17 19:52:00,
2013-06-18 05:57:00,41.5,36.8,29.44,West,270,0.0,0.0,83,0.00,CLR,OVC,0.00,WeatherDisplay:10.37,2013-06-17 19:57:00,
2013-06-18 06:02:00,41.4,36.6,29.44,West,270,0.0,0.0,83,0.00,CLR,OVC,0.00,WeatherDisplay:10.37,2013-06-17 20:02:00,
2013-06-18 06:07:00,41.4,36.6,29.44,SSW,202,0.0,0.0,83,0.00,CLR,OVC,0.00,WeatherDisplay:10.37,2013-06-17 20:07:00,
2013-06-18 06:12:00,41.2,36.4,29.44,SSE,158,0.0,0.0,83,0.00,CLR,OVC,0.00,WeatherDisplay:10.37,2013-06-17 20:12:00,
2013-06-18 06:17:00,41.2,36.4,29.41,East,90,0.0,0.0,83,0.00,CLR,OVC,0.00,WeatherDisplay:10.37,2013-06-17 20:17:00,
2013-06-18 06:22:00,41.2,36.7,29.41,NE,45,0.0,0.0,84,0.00,CLR,OVC,0.00,WeatherDisplay:10.37,2013-06-17 20:22:00,
2013-06-18 06:27:00,41.0,36.2,29.41,NE,45,0.0,0.0,83,0.00,CLR,OVC,0.00,WeatherDisplay:10.37,2013-06-17 20:27:00,
2013-06-18 06:32:00,41.0,36.2,29.44,NE,45,0.0,0.0,83,0.00,CLR,OVC,0.00,WeatherDisplay:10.37,2013-06-17 20:32:00,
2013-06-18 06:37:00,41.0,36.2,29.44,NE,45,0.0,0.0,83,0.00,CLR,OVC,0.00,WeatherDisplay:10.37,2013-06-17 20:37:00,
2013-06-18 06:42:00,41.0,36.5,29.44,NE,45,0.0,0.0,84,0.00,CLR,OVC,0.00,WeatherDisplay:10.37,2013-06-17 20:42:00,
2013-06-18 06:47:00,41.0,36.5,29.44,NE,45,0.0,0.0,84,0.00,CLR,OVC,0.00,WeatherDisplay:10.37,2013-06-17 20:47:00,
2013-06-18 06:52:00,41.0,36.5,29.44,NE,45,0.0,0.0,84,0.00,CLR,OVC,0.00,WeatherDisplay:10.37,2013-06-17 20:52:00,
2013-06-18 06:57:00,40.8,36.4,29.44,NE,45,0.0,0.0,84,0.00,CLR,OVC,0.00,WeatherDisplay:10.37,2013-06-17 20:57:00,
2013-06-18 07:02:00,40.8,36.4,29.44,NW,315,0.0,0.0,84,0.00,CLR,OVC,0.00,WeatherDisplay:10.37,2013-06-17 21:02:00,
2013-06-18 07:07:00,40.6,36.2,29.44,NW,315,0.0,0.0,84,0.00,CLR,OVC,0.00,WeatherDisplay:10.37,2013-06-17 21:07:00,
2013-06-18 07:13:00,40.6,36.2,29.44,West,270,0.0,0.0,84,0.00,CLR,OVC,0.00,WeatherDisplay:10.37,2013-06-17 21:13:00,
2013-06-18 07:18:00,40.6,36.2,29.47,West,270,0.0,0.0,84,0.00,CLR,OVC,0.00,WeatherDisplay:10.37,2013-06-17 21:18:00,
2013-06-18 07:23:00,40.6,36.2,29.47,WNW,292,0.0,0.0,84,0.00,CLR,OVC,0.00,WeatherDisplay:10.37,2013-06-17 21:23:00,
2013-06-18 07:28:00,40.6,36.2,29.47,WNW,292,0.0,0.0,84,0.00,CLR,OVC,0.00,WeatherDisplay:10.37,2013-06-17 21:28:00,
2013-06-18 07:33:00,40.6,36.2,29.47,WNW,292,0.0,0.0,84,0.00,CLR,OVC,0.00,WeatherDisplay:10.37,2013-06-17 21:33:00,
2013-06-18 07:38:00,40.6,36.5,29.47,North,0,0.0,0.0,85,0.00,CLR,OVC,0.00,WeatherDisplay:10.37,2013-06-17 21:38:00,
2013-06-18 07:43:00,40.6,36.5,29.47,NNW,338,0.0,0.0,85,0.00,CLR,OVC,0.00,WeatherDisplay:10.37,2013-06-17 21:43:00,
2013-06-18 07:48:00,40.8,36.7,29.47,NW,315,0.0,0.0,85,0.00,CLR,OVC,0.00,WeatherDisplay:10.37,2013-06-17 21:48:00,
2013-06-18 07:53:00,41.0,36.8,29.47,NW,315,0.0,0.0,85,0.00,CLR,OVC,0.00,WeatherDisplay:10.37,2013-06-17 21:53:00,
2013-06-18 07:58:00,41.2,37.0,29.47,North,0,0.0,0.0,85,0.00,CLR,OVC,0.00,WeatherDisplay:10.37,2013-06-17 21:58:00,
2013-06-18 08:03:00,41.4,37.5,29.47,NNE,22,0.0,0.0,86,0.00,CLR,OVC,0.00,WeatherDisplay:10.37,2013-06-17 22:03:00,
2013-06-18 08:08:00,41.5,37.7,29.47,WNW,292,0.0,0.0,86,0.00,CLR,OVC,0.00,WeatherDisplay:10.37,2013-06-17 22:08:00,
2013-06-18 08:13:00,41.7,37.8,29.47,West,270,0.0,0.0,86,0.00,CLR,OVC,0.00,WeatherDisplay:10.37,2013-06-17 22:13:00,
2013-06-18 08:18:00,41.9,38.3,29.47,NNE,22,0.0,0.0,87,0.00,CLR,OVC,0.00,WeatherDisplay:10.37,2013-06-17 22:18:00,
2013-06-18 08:23:00,42.1,38.5,29.47,NNE,22,0.0,0.0,87,0.00,CLR,OVC,0.00,WeatherDisplay:10.37,2013-06-17 22:23:00,
2013-06-18 08:28:00,42.3,38.7,29.47,NNE,22,0.0,0.0,87,0.00,CLR,OVC,0.00,WeatherDisplay:10.37,2013-06-17 22:28:00,
2013-06-18 08:33:00,42.4,38.8,29.47,WNW,292,0.0,0.0,87,0.00,CLR,OVC,0.00,WeatherDisplay:10.37,2013-06-17 22:33:00,
2013-06-18 08:38:00,42.8,39.2,29.47,WNW,292,0.0,0.0,87,0.00,CLR,OVC,0.00,WeatherDisplay:10.37,2013-06-17 22:38:00,
2013-06-18 08:43:00,43.0,39.4,29.47,NW,315,0.0,0.0,87,0.00,CLR,OVC,0.00,WeatherDisplay:10.37,2013-06-17 22:43:00,
2013-06-18 08:48:00,43.5,40.2,29.47,NNE,22,0.0,0.0,88,0.00,CLR,OVC,0.00,WeatherDisplay:10.37,2013-06-17 22:48:00,
2013-06-18 08:53:00,44.4,41.1,29.47,NW,315,0.0,0.0,88,0.00,CLR,OVC,0.00,WeatherDisplay:10.37,2013-06-17 22:53:00,
2013-06-18 08:58:00,45.5,42.2,29.47,West,270,0.0,0.0,88,0.00,CLR,OVC,0.00,WeatherDisplay:10.37,2013-06-17 22:58:00,
2013-06-18 09:03:00,46.8,43.4,29.50,NW,315,0.0,0.0,88,0.00,CLR,OVC,0.00,WeatherDisplay:10.37,2013-06-17 23:03:00,
2013-06-18 09:08:00,48.2,44.8,29.50,NNW,338,0.0,0.0,88,0.00,CLR,OVC,0.00,WeatherDisplay:10.37,2013-06-17 23:08:00,
2013-06-18 09:13:00,49.1,45.7,29.50,North,0,0.0,0.0,88,0.00,CLR,OVC,0.00,WeatherDisplay:10.37,2013-06-17 23:13:00,
2013-06-18 09:18:00,49.6,45.6,29.50,NNW,338,0.0,0.0,86,0.00,CLR,OVC,0.00,WeatherDisplay:10.37,2013-06-17 23:18:00,
2013-06-18 09:23:00,50.0,45.4,29.50,NE,45,0.0,0.0,84,0.00,CLR,OVC,0.00,WeatherDisplay:10.37,2013-06-17 23:23:00,
2013-06-18 09:28:00,50.4,45.4,29.50,NNW,338,0.0,0.0,83,0.00,CLR,OVC,0.00,WeatherDisplay:10.37,2013-06-17 23:28:00,
2013-06-18 09:33:00,50.5,45.2,29.50,North,0,0.0,0.0,82,0.00,CLR,OVC,0.00,WeatherDisplay:10.37,2013-06-17 23:33:00,
2013-06-18 09:38:00,50.7,45.4,29.50,WNW,292,2.0,0.0,82,0.00,CLR,OVC,0.00,WeatherDisplay:10.37,2013-06-17 23:38:00,
2013-06-18 09:43:00,50.9,45.6,29.50,ENE,68,1.2,0.0,82,0.00,CLR,OVC,0.00,WeatherDisplay:10.37,2013-06-17 23:43:00,
2013-06-18 09:48:00,51.3,46.0,29.50,NE,45,0.0,0.0,82,0.00,CLR,OVC,0.00,WeatherDisplay:10.37,2013-06-17 23:48:00,
2013-06-18 09:53:00,51.6,46.3,29.50,WNW,292,0.0,0.0,82,0.00,CLR,OVC,0.00,WeatherDisplay:10.37,2013-06-17 23:53:00,
2013-06-18 09:58:00,51.6,46.0,29.50,West,270,1.2,0.0,81,0.00,CLR,OVC,0.00,WeatherDisplay:10.37,2013-06-17 23:58:00,
2013-06-18 10:03:00,52.3,46.7,29.47,NE,45,0.0,0.0,81,0.00,CLR,OVC,0.00,WeatherDisplay:10.37,2013-06-18 00:03:00,
2013-06-18 10:08:00,52.7,46.7,29.47,West,270,2.3,2.3,80,0.00,CLR,OVC,0.00,WeatherDisplay:10.37,2013-06-18 00:08:00,
2013-06-18 10:13:00,53.1,46.7,29.47,WNW,292,1.2,0.0,79,0.00,CLR,OVC,0.00,WeatherDisplay:10.37,2013-06-18 00:13:00,
2013-06-18 10:18:00,53.2,46.6,29.47,North,0,0.0,0.0,78,0.00,CLR,OVC,0.00,WeatherDisplay:10.37,2013-06-18 00:18:00,
2013-06-18 10:23:00,53.4,46.4,29.47,NNW,338,2.3,0.0,77,0.00,CLR,OVC,0.00,WeatherDisplay:10.37,2013-06-18 00:23:00,
2013-06-18 10:28:00,54.0,46.9,29.47,NNW,338,3.5,3.5,77,0.00,CLR,OVC,0.00,WeatherDisplay:10.37,2013-06-18 00:28:00,
2013-06-18 10:33:00,54.3,46.6,29.47,NNW,338,3.5,3.5,75,0.00,CLR,OVC,0.00,WeatherDisplay:10.37,2013-06-18 00:33:00,
2013-06-18 10:38:00,54.7,46.6,29.47,NNE,22,0.0,0.0,74,0.00,CLR,OVC,0.00,WeatherDisplay:10.37,2013-06-18 00:38:00,
2013-06-18 10:43:00,55.2,46.7,29.47,NE,45,2.3,2.3,73,0.00,CLR,OVC,0.00,WeatherDisplay:10.37,2013-06-18 00:43:00,
2013-06-18 10:48:00,55.9,47.0,29.47,NW,315,1.4,0.0,72,0.00,CLR,OVC,0.00,WeatherDisplay:10.37,2013-06-18 00:48:00,
2013-06-18 10:53:00,57.0,48.1,29.47,NW,315,2.3,2.3,72,0.00,CLR,OVC,0.00,WeatherDisplay:10.37,2013-06-18 00:53:00,
2013-06-18 10:58:00,57.2,47.1,29.47,North,0,2.6,2.6,69,0.00,CLR,OVC,0.00,WeatherDisplay:10.37,2013-06-18 00:58:00,
2013-06-18 11:03:00,57.2,46.7,29.47,North,0,2.3,2.4,68,0.00,CLR,OVC,0.00,WeatherDisplay:10.37,2013-06-18 01:03:00,
2013-06-18 11:08:00,57.2,46.3,29.47,West,270,1.2,0.0,67,0.00,CLR,OVC,0.00,WeatherDisplay:10.37,2013-06-18 01:08:00,
2013-06-18 11:13:00,57.2,46.3,29.47,NNW,338,2.3,2.3,67,0.00,CLR,OVC,0.00,WeatherDisplay:10.37,2013-06-18 01:13:00,
2013-06-18 11:18:00,57.6,46.7,29.44,North,0,2.4,2.4,67,0.00,CLR,OVC,0.00,WeatherDisplay:10.37,2013-06-18 01:18:00,
2013-06-18 11:23:00,57.6,46.7,29.44,NW,315,4.6,4.6,67,0.00,CLR,OVC,0.00,WeatherDisplay:10.37,2013-06-18 01:23:00,
2013-06-18 11:28:00,57.7,46.5,29.44,NNW,338,3.5,3.5,66,0.00,CLR,OVC,0.00,WeatherDisplay:10.37,2013-06-18 01:28:00,
2013-06-18 11:33:00,57.9,47.0,29.44,NW,315,4.6,4.6,67,0.00,CLR,OVC,0.00,WeatherDisplay:10.37,2013-06-18 01:33:00,
2013-06-18 11:38:00,57.9,46.6,29.44,North,0,2.3,2.3,66,0.00,CLR,OVC,0.00,WeatherDisplay:10.37,2013-06-18 01:38:00,
2013-06-18 11:43:00,58.1,46.8,29.44,NNW,338,2.3,0.0,66,0.00,CLR,OVC,0.00,WeatherDisplay:10.37,2013-06-18 01:43:00,
2013-06-18 11:48:00,58.1,46.4,29.44,ESE,112,1.2,0.0,65,0.00,CLR,OVC,0.00,WeatherDisplay:10.37,2013-06-18 01:48:00,
2013-06-18 11:53:00,58.3,46.2,29.44,WNW,292,2.3,2.3,64,0.00,CLR,OVC,0.00,WeatherDisplay:10.37,2013-06-18 01:53:00,
2013-06-18 11:58:00,58.5,46.3,29.44,NNE,22,2.3,2.3,64,0.00,CLR,OVC,0.00,WeatherDisplay:10.37,2013-06-18 01:58:00,
2013-06-18 12:03:00,58.5,46.3,29.44,SW,225,2.3,2.3,64,0.00,CLR,OVC,0.00,WeatherDisplay:10.37,2013-06-18 02:03:00,
2013-06-18 12:08:00,58.6,46.1,29.44,NNE,22,1.2,0.0,63,0.00,CLR,OVC,0.00,WeatherDisplay:10.37,2013-06-18 02:08:00,
2013-06-18 12:13:00,58.8,46.2,29.44,WSW,248,3.5,3.5,63,0.00,CLR,OVC,0.00,WeatherDisplay:10.37,2013-06-18 02:13:00,
2013-06-18 12:18:00,58.6,45.2,29.44,NW,315,1.2,1.2,61,0.00,CLR,OVC,0.00,WeatherDisplay:10.37,2013-06-18 02:18:00,
2013-06-18 12:23:00,58.8,45.8,29.44,South,180,0.0,0.0,62,0.00,CLR,OVC,0.00,WeatherDisplay:10.37,2013-06-18 02:23:00,
2013-06-18 12:28:00,58.6,45.2,29.44,NNE,22,0.0,0.0,61,0.00,CLR,OVC,0.00,WeatherDisplay:10.37,2013-06-18 02:28:00,
2013-06-18 12:33:00,58.5,44.6,29.44,NE,45,2.3,2.3,60,0.00,CLR,OVC,0.00,WeatherDisplay:10.37,2013-06-18 02:33:00,
2013-06-18 12:38:00,58.8,45.4,29.44,NW,315,1.2,1.2,61,0.00,CLR,OVC,0.00,WeatherDisplay:10.37,2013-06-18 02:38:00,
2013-06-18 12:43:00,59.2,45.7,29.44,NNW,338,2.3,2.3,61,0.00,CLR,OVC,0.00,WeatherDisplay:10.37,2013-06-18 02:43:00,
2013-06-18 12:48:00,59.2,44.9,29.41,NE,45,3.5,3.5,59,0.00,CLR,OVC,0.00,WeatherDisplay:10.37,2013-06-18 02:48:00,
2013-06-18 12:53:00,59.0,44.7,29.41,North,0,3.5,3.5,59,0.00,CLR,OVC,0.00,WeatherDisplay:10.37,2013-06-18 02:53:00,
2013-06-18 12:58:00,59.4,45.0,29.41,NW,315,2.3,2.3,59,0.00,CLR,OVC,0.00,WeatherDisplay:10.37,2013-06-18 02:58:00,
2013-06-18 13:03:00,59.4,45.0,29.41,WNW,292,2.6,2.6,59,0.00,CLR,OVC,0.00,WeatherDisplay:10.37,2013-06-18 03:03:00,
2013-06-18 13:08:00,59.4,45.0,29.41,East,90,3.5,3.5,59,0.00,CLR,OVC,0.00,WeatherDisplay:10.37,2013-06-18 03:08:00,
2013-06-18 13:13:00,59.2,43.9,29.41,NNE,22,3.1,3.1,57,0.00,CLR,OVC,0.00,WeatherDisplay:10.37,2013-06-18 03:13:00,
2013-06-18 13:18:00,59.2,43.9,29.41,NE,45,2.4,2.4,57,0.00,CLR,OVC,0.00,WeatherDisplay:10.37,2013-06-18 03:18:00,
2013-06-18 13:23:00,59.5,44.7,29.41,East,90,2.3,0.0,58,0.00,CLR,OVC,0.00,WeatherDisplay:10.37,2013-06-18 03:23:00,
2013-06-18 13:28:00,59.4,43.7,29.41,South,180,2.9,2.9,56,0.00,CLR,OVC,0.00,WeatherDisplay:10.37,2013-06-18 03:28:00,
2013-06-18 13:33:00,59.7,44.5,29.38,North,0,4.6,4.6,57,0.00,CLR,OVC,0.00,WeatherDisplay:10.37,2013-06-18 03:33:00,
2013-06-18 13:38:00,59.5,44.3,29.38,NNE,22,2.4,2.4,57,0.00,CLR,OVC,0.00,WeatherDisplay:10.37,2013-06-18 03:38:00,
2013-06-18 13:43:00,59.9,44.6,29.38,NNW,338,2.3,2.3,57,0.00,CLR,OVC,0.00,WeatherDisplay:10.37,2013-06-18 03:43:00,
2013-06-18 13:48:00,59.7,44.5,29.38,NE,45,1.2,0.0,57,0.00,CLR,OVC,0.00,WeatherDisplay:10.37,2013-06-18 03:48:00,
2013-06-18 13:53:00,59.7,44.0,29.38,NNW,338,2.3,2.3,56,0.00,CLR,OVC,0.00,WeatherDisplay:10.37,2013-06-18 03:53:00,
2013-06-18 13:58:00,59.9,44.6,29.38,NNW,338,1.2,0.0,57,0.00,CLR,OVC,0.00,WeatherDisplay:10.37,2013-06-18 03:58:00,
2013-06-18 14:01:00,60.1,44.3,29.35,NNE,22,3.5,3.5,56,0.00,CLR,OVC,0.00,WeatherDisplay:10.37,2013-06-18 04:01:00,
2013-06-18 14:06:00,60.4,44.7,29.35,North,0,2.3,2.3,56,0.00,CLR,OVC,0.00,WeatherDisplay:10.37,2013-06-18 04:06:00,
2013-06-18 14:11:00,60.6,43.9,29.35,NNW,338,1.2,0.0,54,0.00,CLR,OVC,0.00,WeatherDisplay:10.37,2013-06-18 04:11:00,
2013-06-18 14:16:00,60.6,44.4,29.38,North,0,2.3,2.3,55,0.00,CLR,OVC,0.00,WeatherDisplay:10.37,2013-06-18 04:16:00,
2013-06-18 14:21:00,60.6,44.4,29.38,NE,45,0.0,0.0,55,0.00,CLR,OVC,0.00,WeatherDisplay:10.37,2013-06-18 04:21:00,
2013-06-18 14:26:00,60.4,44.7,29.38,SE,135,0.0,0.0,56,0.00,CLR,OVC,0.00,WeatherDisplay:10.37,2013-06-18 04:26:00,
2013-06-18 14:31:00,60.4,44.7,29.38,North,0,2.3,2.3,56,0.00,CLR,OVC,0.00,WeatherDisplay:10.37,2013-06-18 04:31:00,
2013-06-18 14:36:00,60.4,42.7,29.38,North,0,2.3,2.3,52,0.00,CLR,OVC,0.00,WeatherDisplay:10.37,2013-06-18 04:36:00,
2013-06-18 14:41:00,60.4,43.7,29.38,North,0,3.5,3.5,54,0.00,CLR,OVC,0.00,WeatherDisplay:10.37,2013-06-18 04:41:00,
2013-06-18 14:46:00,60.4,43.7,29.35,NNE,22,3.5,3.5,54,0.00,CLR,OVC,0.00,WeatherDisplay:10.37,2013-06-18 04:46:00,
2013-06-18 14:51:00,60.4,44.2,29.35,North,0,0.0,0.0,55,0.00,CLR,OVC,0.00,WeatherDisplay:10.37,2013-06-18 04:51:00,
2013-06-18 14:56:00,60.3,44.0,29.35,NNE,22,2.3,2.3,55,0.00,CLR,OVC,0.00,WeatherDisplay:10.37,2013-06-18 04:56:00,
2013-06-18 15:01:00,60.3,43.5,29.35,NNW,338,1.2,1.2,54,0.00,CLR,OVC,0.00,WeatherDisplay:10.37,2013-06-18 05:01:00,
2013-06-18 15:06:00,60.1,43.4,29.35,NNE,22,1.2,0.0,54,0.00,CLR,OVC,0.00,WeatherDisplay:10.37,2013-06-18 05:06:00,
2013-06-18 15:11:00,59.9,43.7,29.35,NNE,22,2.3,2.3,55,0.00,CLR,OVC,0.00,WeatherDisplay:10.37,2013-06-18 05:11:00,
2013-06-18 15:16:00,59.5,43.3,29.35,South,180,0.0,0.0,55,0.00,CLR,OVC,0.00,WeatherDisplay:10.37,2013-06-18 05:16:00,
2013-06-18 15:21:00,59.2,43.9,29.35,South,180,0.0,0.0,57,0.00,CLR,OVC,0.00,WeatherDisplay:10.37,2013-06-18 05:21:00,
2013-06-18 15:26:00,58.6,43.4,29.35,SE,135,0.0,0.0,57,0.00,CLR,OVC,0.00,WeatherDisplay:10.37,2013-06-18 05:26:00,
2013-06-18 15:31:00,58.3,43.6,29.38,NE,45,0.0,0.0,58,0.00,CLR,OVC,0.00,WeatherDisplay:10.37,2013-06-18 05:31:00,
2013-06-18 15:36:00,58.1,43.4,29.38,East,90,0.0,0.0,58,0.00,CLR,OVC,0.00,WeatherDisplay:10.37,2013-06-18 05:36:00,
2013-06-18 15:41:00,57.9,43.7,29.38,ESE,112,0.0,0.0,59,0.00,CLR,OVC,0.00,WeatherDisplay:10.37,2013-06-18 05:41:00,
2013-06-18 15:46:00,57.6,44.2,29.38,NW,315,2.3,0.0,61,0.00,CLR,OVC,0.00,WeatherDisplay:10.37,2013-06-18 05:46:00,
2013-06-18 15:51:00,57.6,44.6,29.38,West,270,2.9,0.0,62,0.00,CLR,OVC,0.00,WeatherDisplay:10.37,2013-06-18 05:51:00,
2013-06-18 15:56:00,57.6,45.1,29.38,WNW,292,1.2,0.0,63,0.00,CLR,OVC,0.00,WeatherDisplay:10.37,2013-06-18 05:56:00,
2013-06-18 16:01:00,57.4,45.3,29.38,WNW,292,3.5,3.5,64,0.00,CLR,OVC,0.00,WeatherDisplay:10.37,2013-06-18 06:01:00,
2013-06-18 16:06:00,57.0,45.0,29.38,West,270,2.3,0.0,64,0.00,CLR,OVC,0.00,WeatherDisplay:10.37,2013-06-18 06:06:00,
2013-06-18 16:11:00,56.8,44.8,29.38,West,270,0.0,0.0,64,0.00,CLR,OVC,0.00,WeatherDisplay:10.37,2013-06-18 06:11:00,
2013-06-18 16:16:00,56.5,44.0,29.41,South,180,0.0,0.0,63,0.00,CLR,OVC,0.00,WeatherDisplay:10.37,2013-06-18 06:16:00,
2013-06-18 16:21:00,55.9,43.5,29.41,SW,225,0.0,0.0,63,0.00,CLR,OVC,0.00,WeatherDisplay:10.37,2013-06-18 06:21:00,
2013-06-18 16:26:00,55.8,43.8,29.41,NW,315,0.0,0.0,64,0.00,CLR,OVC,0.00,WeatherDisplay:10.37,2013-06-18 06:26:00,
2013-06-18 16:31:00,55.6,44.0,29.41,ESE,112,0.0,0.0,65,0.00,CLR,OVC,0.00,WeatherDisplay:10.37,2013-06-18 06:31:00,
2013-06-18 16:36:00,55.0,43.9,29.41,ESE,112,0.0,0.0,66,0.00,CLR,OVC,0.00,WeatherDisplay:10.37,2013-06-18 06:36:00,
2013-06-18 16:41:00,54.9,43.7,29.41,SE,135,0.0,0.0,66,0.00,CLR,OVC,0.00,WeatherDisplay:10.37,2013-06-18 06:41:00,
2013-06-18 16:46:00,54.3,43.2,29.41,SE,135,0.0,0.0,66,0.00,CLR,OVC,0.00,WeatherDisplay:10.37,2013-06-18 06:46:00,
2013-06-18 16:51:00,54.0,42.9,29.41,ENE,68,0.0,0.0,66,0.00,CLR,OVC,0.00,WeatherDisplay:10.37,2013-06-18 06:51:00,
2013-06-18 16:56:00,53.6,42.5,29.41,ENE,68,0.0,0.0,66,0.00,CLR,OVC,0.00,WeatherDisplay:10.37,2013-06-18 06:56:00,
2013-06-18 17:01:00,53.2,42.6,29.44,East,90,0.0,0.0,67,0.00,CLR,OVC,0.00,WeatherDisplay:10.37,2013-06-18 07:01:00,
2013-06-18 17:06:00,52.9,42.6,29.44,NNW,338,0.0,0.0,68,0.00,CLR,OVC,0.00,WeatherDisplay:10.37,2013-06-18 07:06:00,
2013-06-18 17:11:00,52.7,42.8,29.44,WNW,292,0.0,0.0,69,0.00,CLR,OVC,0.00,WeatherDisplay:10.37,2013-06-18 07:11:00,
2013-06-18 17:16:00,52.3,42.5,29.44,SW,225,0.0,0.0,69,0.00,CLR,OVC,0.00,WeatherDisplay:10.37,2013-06-18 07:16:00,
2013-06-18 17:21:00,52.2,42.7,29.44,East,90,0.0,0.0,70,0.00,CLR,OVC,0.00,WeatherDisplay:10.37,2013-06-18 07:21:00,
2013-06-18 17:26:00,52.0,42.5,29.44,East,90,0.0,0.0,70,0.00,CLR,OVC,0.00,WeatherDisplay:10.37,2013-06-18 07:26:00,
2013-06-18 17:31:00,51.8,42.3,29.44,ESE,112,0.0,0.0,70,0.00,CLR,OVC,0.00,WeatherDisplay:10.37,2013-06-18 07:31:00,
2013-06-18 17:36:00,51.8,42.7,29.44,SE,135,0.0,0.0,71,0.00,CLR,OVC,0.00,WeatherDisplay:10.37,2013-06-18 07:36:00,
2013-06-18 17:41:00,51.8,43.1,29.44,WNW,292,2.6,0.0,72,0.00,CLR,OVC,0.00,WeatherDisplay:10.37,2013-06-18 07:41:00,
2013-06-18 17:46:00,51.6,43.2,29.44,West,270,1.2,0.0,73,0.00,CLR,OVC,0.00,WeatherDisplay:10.37,2013-06-18 07:46:00,
2013-06-18 17:51:00,51.6,43.2,29.44,SW,225,0.0,0.0,73,0.00,CLR,OVC,0.00,WeatherDisplay:10.37,2013-06-18 07:51:00,
2013-06-18 17:56:00,51.6,43.6,29.44,WSW,248,0.0,0.0,74,0.00,CLR,OVC,0.00,WeatherDisplay:10.37,2013-06-18 07:56:00,
2013-06-18 18:01:00,51.6,43.6,29.44,WSW,248,0.0,0.0,74,0.00,CLR,OVC,0.00,WeatherDisplay:10.37,2013-06-18 08:01:00,
2013-06-18 18:06:00,51.6,43.6,29.44,SW,225,0.0,0.0,74,0.00,CLR,OVC,0.00,WeatherDisplay:10.37,2013-06-18 08:06:00,
2013-06-18 18:11:00,51.8,43.8,29.44,West,270,0.0,0.0,74,0.00,CLR,OVC,0.00,WeatherDisplay:10.37,2013-06-18 08:11:00,
2013-06-18 18:16:00,51.6,44.3,29.47,NE,45,0.0,0.0,76,0.00,CLR,OVC,0.00,WeatherDisplay:10.37,2013-06-18 08:16:00,
2013-06-18 18:21:00,51.4,44.1,29.47,ESE,112,0.0,0.0,76,0.00,CLR,OVC,0.00,WeatherDisplay:10.37,2013-06-18 08:21:00,
2013-06-18 18:26:00,51.3,44.0,29.47,SSE,158,2.6,2.9,76,0.00,CLR,OVC,0.00,WeatherDisplay:10.37,2013-06-18 08:26:00,
2013-06-18 18:32:00,51.3,44.3,29.47,East,90,0.0,0.0,77,0.00,CLR,OVC,0.00,WeatherDisplay:10.37,2013-06-18 08:32:00,
2013-06-18 18:37:00,51.3,44.0,29.47,NNW,338,0.0,0.0,76,0.00,CLR,OVC,0.00,WeatherDisplay:10.37,2013-06-18 08:37:00,
2013-06-18 18:42:00,51.4,44.5,29.47,WNW,292,3.5,3.5,77,0.00,CLR,OVC,0.00,WeatherDisplay:10.37,2013-06-18 08:42:00,
2013-06-18 18:47:00,51.3,44.3,29.47,SSW,202,0.0,0.0,77,0.00,CLR,OVC,0.00,WeatherDisplay:10.37,2013-06-18 08:47:00,
2013-06-18 18:52:00,51.3,44.3,29.47,ESE,112,0.0,0.0,77,0.00,CLR,OVC,0.00,WeatherDisplay:10.37,2013-06-18 08:52:00,
2013-06-18 18:57:00,51.3,45.0,29.47,East,90,0.0,0.0,79,0.00,CLR,OVC,0.00,WeatherDisplay:10.37,2013-06-18 08:57:00,
2013-06-18 19:02:00,51.1,44.8,29.47,East,90,0.0,0.0,79,0.00,CLR,OVC,0.00,WeatherDisplay:10.37,2013-06-18 09:02:00,
2013-06-18 19:07:00,51.1,44.8,29.47,SSE,158,0.0,0.0,79,0.00,CLR,OVC,0.00,WeatherDisplay:10.37,2013-06-18 09:07:00,
2013-06-18 19:12:00,50.9,44.6,29.47,NE,45,0.0,0.0,79,0.00,CLR,OVC,0.00,WeatherDisplay:10.37,2013-06-18 09:12:00,
2013-06-18 19:17:00,50.9,44.6,29.50,South,180,0.0,0.0,79,0.00,CLR,OVC,0.00,WeatherDisplay:10.37,2013-06-18 09:17:00,
2013-06-18 19:22:00,51.1,44.8,29.50,NW,315,2.9,2.9,79,0.00,CLR,OVC,0.00,WeatherDisplay:10.37,2013-06-18 09:22:00,
2013-06-18 19:27:00,50.9,44.6,29.50,West,270,0.0,0.0,79,0.00,CLR,OVC,0.00,WeatherDisplay:10.37,2013-06-18 09:27:00,
2013-06-18 19:32:00,50.9,44.6,29.50,WSW,248,0.0,0.0,79,0.00,CLR,OVC,0.00,WeatherDisplay:10.37,2013-06-18 09:32:00,
2013-06-18 19:37:00,50.9,44.6,29.50,NW,315,0.0,0.0,79,0.00,CLR,OVC,0.00,WeatherDisplay:10.37,2013-06-18 09:37:00,
2013-06-18 19:42:00,51.1,44.8,29.50,WNW,292,0.0,0.0,79,0.00,CLR,OVC,0.00,WeatherDisplay:10.37,2013-06-18 09:42:00,
2013-06-18 19:47:00,51.1,44.8,29.50,WNW,292,0.0,0.0,79,0.00,CLR,OVC,0.00,WeatherDisplay:10.37,2013-06-18 09:47:00,
2013-06-18 19:52:00,51.1,44.8,29.50,WNW,292,0.0,0.0,79,0.00,CLR,OVC,0.00,WeatherDisplay:10.37,2013-06-18 09:52:00,
2013-06-18 19:57:00,51.3,45.0,29.50,WSW,248,0.0,0.0,79,0.00,CLR,OVC,0.00,WeatherDisplay:10.37,2013-06-18 09:57:00,
2013-06-18 20:02:00,51.3,45.0,29.47,West,270,0.0,0.0,79,0.00,CLR,OVC,0.00,WeatherDisplay:10.37,2013-06-18 10:02:00,
2013-06-18 20:07:00,51.3,45.0,29.47,WSW,248,0.0,0.0,79,0.00,CLR,OVC,0.00,WeatherDisplay:10.37,2013-06-18 10:07:00,
2013-06-18 20:12:00,51.3,45.0,29.47,West,270,2.3,0.0,79,0.00,CLR,OVC,0.00,WeatherDisplay:10.37,2013-06-18 10:12:00,
2013-06-18 20:17:00,51.3,45.0,29.50,NW,315,2.3,2.3,79,0.00,CLR,OVC,0.00,WeatherDisplay:10.37,2013-06-18 10:17:00,
2013-06-18 20:22:00,51.4,45.1,29.50,WSW,248,0.0,0.0,79,0.00,CLR,OVC,0.00,WeatherDisplay:10.37,2013-06-18 10:22:00,
2013-06-18 20:27:00,51.4,45.1,29.50,South,180,0.0,0.0,79,0.00,CLR,OVC,0.00,WeatherDisplay:10.37,2013-06-18 10:27:00,
2013-06-18 20:32:00,51.4,45.1,29.50,South,180,0.0,0.0,79,0.00,CLR,OVC,0.00,WeatherDisplay:10.37,2013-06-18 10:32:00,
2013-06-18 20:37:00,51.4,45.1,29.50,WNW,292,0.0,0.0,79,0.00,CLR,OVC,0.00,WeatherDisplay:10.37,2013-06-18 10:37:00,
2013-06-18 20:42:00,51.4,45.1,29.50,WNW,292,3.5,3.5,79,0.00,CLR,OVC,0.00,WeatherDisplay:10.37,2013-06-18 10:42:00,
2013-06-18 20:47:00,51.4,45.1,29.50,NW,315,0.0,0.0,79,0.00,CLR,OVC,0.00,WeatherDisplay:10.37,2013-06-18 10:47:00,
2013-06-18 20:52:00,51.4,45.1,29.50,NW,315,0.0,0.0,79,0.00,CLR,OVC,0.00,WeatherDisplay:10.37,2013-06-18 10:52:00,
2013-06-18 20:57:00,51.4,45.1,29.50,West,270,0.0,0.0,79,0.00,CLR,OVC,0.00,WeatherDisplay:10.37,2013-06-18 10:57:00,
2013-06-18 21:02:00,51.3,45.0,29.53,WNW,292,0.0,0.0,79,0.00,CLR,OVC,0.00,WeatherDisplay:10.37,2013-06-18 11:02:00,
2013-06-18 21:07:00,51.1,44.8,29.53,South,180,0.0,0.0,79,0.00,CLR,OVC,0.00,WeatherDisplay:10.37,2013-06-18 11:07:00,
2013-06-18 21:12:00,50.7,44.1,29.53,SSW,202,0.0,0.0,78,0.00,CLR,OVC,0.00,WeatherDisplay:10.37,2013-06-18 11:12:00,
2013-06-18 21:17:00,50.5,43.9,29.50,South,180,0.0,0.0,78,0.00,CLR,OVC,0.00,WeatherDisplay:10.37,2013-06-18 11:17:00,
2013-06-18 21:22:00,50.2,43.2,29.50,South,180,0.0,0.0,77,0.00,CLR,OVC,0.00,WeatherDisplay:10.37,2013-06-18 11:22:00,
2013-06-18 21:27:00,50.0,43.1,29.50,SW,225,0.0,0.0,77,0.00,CLR,OVC,0.00,WeatherDisplay:10.37,2013-06-18 11:27:00,
2013-06-18 21:32:00,49.8,43.2,29.53,WSW,248,0.0,0.0,78,0.00,CLR,OVC,0.00,WeatherDisplay:10.37,2013-06-18 11:32:00,
2013-06-18 21:37:00,49.6,43.1,29.53,WSW,248,0.0,0.0,78,0.00,CLR,OVC,0.00,WeatherDisplay:10.37,2013-06-18 11:37:00,
2013-06-18 21:42:00,49.6,43.1,29.53,SW,225,0.0,0.0,78,0.00,CLR,OVC,0.00,WeatherDisplay:10.37,2013-06-18 11:42:00,
2013-06-18 21:47:00,49.5,42.9,29.53,East,90,0.0,0.0,78,0.00,CLR,OVC,0.00,WeatherDisplay:10.37,2013-06-18 11:47:00,
2013-06-18 21:52:00,49.3,43.0,29.53,West,270,0.0,0.0,79,0.00,CLR,OVC,0.00,WeatherDisplay:10.37,2013-06-18 11:52:00,
2013-06-18 21:57:00,49.1,42.9,29.53,SSW,202,0.0,0.0,79,0.00,CLR,OVC,0.00,WeatherDisplay:10.37,2013-06-18 11:57:00,
2013-06-18 22:02:00,48.9,42.7,29.53,WSW,248,0.0,0.0,79,0.00,CLR,OVC,0.00,WeatherDisplay:10.37,2013-06-18 12:02:00,
2013-06-18 22:07:00,48.7,42.2,29.53,WSW,248,0.0,0.0,78,0.00,CLR,OVC,0.00,WeatherDisplay:10.37,2013-06-18 12:07:00,
2013-06-18 22:12:00,48.7,42.5,29.53,SW,225,0.0,0.0,79,0.00,CLR,OVC,0.00,WeatherDisplay:10.37,2013-06-18 12:12:00,
2013-06-18 22:17:00,48.7,42.5,29.56,West,270,0.0,0.0,79,0.00,CLR,OVC,0.00,WeatherDisplay:10.37,2013-06-18 12:17:00,
2013-06-18 22:22:00,48.6,42.7,29.56,SW,225,0.0,0.0,80,0.00,CLR,OVC,0.00,WeatherDisplay:10.37,2013-06-18 12:22:00,
2013-06-18 22:27:00,48.6,42.7,29.56,WSW,248,0.0,0.0,80,0.00,CLR,OVC,0.00,WeatherDisplay:10.37,2013-06-18 12:27:00,
2013-06-18 22:32:00,48.7,43.2,29.56,SW,225,0.0,0.0,81,0.00,CLR,OVC,0.00,WeatherDisplay:10.37,2013-06-18 12:32:00,
2013-06-18 22:37:00,48.7,43.5,29.56,NW,315,0.0,0.0,82,0.00,CLR,OVC,0.00,WeatherDisplay:10.37,2013-06-18 12:37:00,
2013-06-18 22:42:00,48.7,43.8,29.56,NE,45,0.0,0.0,83,0.00,CLR,OVC,0.00,WeatherDisplay:10.37,2013-06-18 12:42:00,
2013-06-18 22:47:00,48.7,43.8,29.56,NE,45,0.0,0.0,83,0.00,CLR,OVC,0.00,WeatherDisplay:10.37,2013-06-18 12:47:00,
2013-06-18 22:52:00,48.7,43.8,29.56,NE,45,0.0,0.0,83,0.00,CLR,OVC,0.00,WeatherDisplay:10.37,2013-06-18 12:52:00,
2013-06-18 22:57:00,48.7,43.8,29.56,South,180,0.0,0.0,83,0.00,CLR,OVC,0.00,WeatherDisplay:10.37,2013-06-18 12:57:00,
2013-06-18 23:02:00,48.9,44.0,29.56,WNW,292,0.0,0.0,83,0.00,CLR,OVC,0.00,WeatherDisplay:10.37,2013-06-18 13:02:00,
2013-06-18 23:07:00,48.9,44.0,29.56,West,270,0.0,0.0,83,0.00,CLR,OVC,0.00,WeatherDisplay:10.37,2013-06-18 13:07:00,
2013-06-18 23:12:00,48.9,44.0,29.56,SW,225,0.0,0.0,83,0.00,CLR,OVC,0.00,WeatherDisplay:10.37,2013-06-18 13:12:00,
2013-06-18 23:17:00,48.7,43.8,29.56,SSE,158,0.0,0.0,83,0.00,CLR,OVC,0.00,WeatherDisplay:10.37,2013-06-18 13:17:00,
2013-06-18 23:22:00,48.7,43.8,29.56,SE,135,0.0,0.0,83,0.00,CLR,OVC,0.00,WeatherDisplay:10.37,2013-06-18 13:22:00,
2013-06-18 23:27:00,48.7,44.1,29.56,East,90,0.0,0.0,84,0.00,CLR,OVC,0.00,WeatherDisplay:10.37,2013-06-18 13:27:00,
2013-06-18 23:32:00,48.7,44.1,29.56,ENE,68,0.0,0.0,84,0.00,CLR,OVC,0.00,WeatherDisplay:10.37,2013-06-18 13:32:00,
2013-06-18 23:37:00,48.6,43.9,29.56,East,90,0.0,0.0,84,0.00,CLR,OVC,0.00,WeatherDisplay:10.37,2013-06-18 13:37:00,
2013-06-18 23:42:00,48.6,43.9,29.56,East,90,0.0,0.0,84,0.00,CLR,OVC,0.00,WeatherDisplay:10.37,2013-06-18 13:42:00,
2013-06-18 23:47:00,48.6,43.9,29.56,East,90,0.0,0.0,84,0.00,CLR,OVC,0.00,WeatherDisplay:10.37,2013-06-18 13:47:00,
2013-06-18 23:52:00,48.6,43.9,29.56,NE,45,0.0,0.0,84,0.00,CLR,OVC,0.00,WeatherDisplay:10.37,2013-06-18 13:52:00,
2013-06-18 23:57:00,48.7,44.4,29.56,NE,45,0.0,0.0,85,0.00,CLR,OVC,0.00,WeatherDisplay:10.37,2013-06-18 13:57:00,